Regional Weather Roundup
Issued by NWS

Home | Current Version | Previous Version | Text Only | Print | Product List | Glossary Off
Versions: 1 2 3 4 5 6 7 8 9 10 11 12 13 14 15 16 17 18 19 20 21 22 23 24 25 26 27 28 29 30 31 32 33 34 35 36 37 38 39 40 41 42 43 44 45 46 47 48 49 50

000
ASUS43 KFSD 250810
RWRSD

WEATHER ROUNDUP FOR SOUTH DAKOTA
NATIONAL WEATHER SERVICE SIOUX FALLS SD
300 AM CDT THU AUG 25 2016

NOTE: "FAIR" INDICATES FEW OR NO CLOUDS BELOW 12,000 FEET WITH NO
SIGNIFICANT WEATHER AND/OR OBSTRUCTIONS TO VISIBILITY.


SDZ001>005-009-010-012>017-250900-
NORTHWEST AND NORTH CENTRAL SOUTH DAKOTA

CITY           SKY/WX    TMP DP  RH WIND       PRES   REMARKS
BUFFALO          N/A     47  42  83 NW14      30.15S
FAITH            N/A     50  45  83 W8        30.19S
MOBRIDGE       CLEAR     57  46  66 W12       30.11R
$$

SDZ012>016-024>037-041>051-057-063-072>074-250900-
SOUTHWEST AND SOUTH CENTRAL SOUTH DAKOTA

CITY           SKY/WX    TMP DP  RH WIND       PRES   REMARKS
RAPID CTY ARPT MOCLDY    56  42  59 N17       30.23S
PIERRE         PTCLDY    57  46  66 NW5       30.14R
CUSTER         PTCLDY    49  42  77 NW5       30.28S
ELLSWORTH AFB  MOCLDY    56  43  61 NW15      30.23S
PHILIP         CLEAR     54  45  71 NW5       30.19S
PINE RIDGE     CLEAR     55  52  89 N6        30.23R
WINNER         FAIR      57  51  80 N8        30.16R
$$

SDZ004>011-016>023-039-040-250900-
NORTHEAST SOUTH DAKOTA

CITY           SKY/WX    TMP DP  RH WIND       PRES   REMARKS
ABERDEEN       PTCLDY    52  47  83 W5        30.07S
WATERTOWN      CLEAR     61  54  77 NW8       30.07R
SISSETON         N/A     59  51  75 W9        30.02R
$$

SDZ017-020-022-023-036>040-048>070-250900-
SOUTHEAST SOUTH DAKOTA

CITY           SKY/WX    TMP DP  RH WIND       PRES   REMARKS
SIOUX FALLS    CLEAR     59  55  87 CALM      30.08S
HURON          CLEAR     54  49  83 NW6       30.10R
CHAMBERLAIN    MOCLDY    65  50  59 N12G17    30.14R
MITCHELL       CLEAR     61  54  77 W9        30.10R
YANKTON        PTCLDY    57  52  82 CALM      30.09S
$$

ABBREVIATIONS USED IN REMARKS
   TC - TEMPERATURE IN CELSIUS
  WCI - WIND CHILL INDEX
   HX - HEAT INDEX
  VSB - VISIBILITY





USA.gov is the U.S. government's official web portal to all federal, state and local government web resources and services.